Simultaneous Nadir Overpasses (SNOs) Predictions

Prediction of SNOs between NOAA-19 and NPP Satellite Orbit:

Table of predicted SNOs for the next 14.0 days since TLE Epoch: 9/14/2012
Index Date (NOAA-19) Time (NOAA-19) NOAA-19 Lat,Lon Date (NPP) Time (NPP) NPP Lat,Lon Distance(km) Time Diff (sec)
1 09/14/2012 22:43:58 -80.72, -29.47 09/14/2012 22:45:04 -80.72, -29.56 1.57 66
2 09/14/2012 23:35:04 80.72, 137.84 09/14/2012 23:35:49 80.72, 137.83 0.15 45
3 09/15/2012 00:26:01 -80.68, -54.27 09/15/2012 00:26:32 -80.68, -54.29 0.45 31
4 09/15/2012 01:17:06 80.66, 113.39 09/15/2012 01:17:16 80.66, 113.44 1.04 10
5 09/15/2012 02:08:04 -80.64, -79.07 09/15/2012 02:08:00 -80.64, -79.03 0.70 4
6 09/15/2012 02:59:08 80.60, 88.93 09/15/2012 02:58:43 80.59, 89.04 2.20 25
7 09/15/2012 03:50:06 -80.58,-103.54 09/15/2012 03:49:27 -80.58,-103.44 1.85 39
8 09/15/2012 04:41:07 80.47, 65.45 09/15/2012 04:40:08 80.48, 65.29 3.22 59
9 09/15/2012 05:32:08 -80.52,-128.02 09/15/2012 05:30:54 -80.51,-127.86 3.02 74
10 09/27/2012 05:04:34 -80.77,-125.56 09/27/2012 05:05:39 -80.77,-125.50 1.04 65
11 09/27/2012 05:55:35 80.74, 42.39 09/27/2012 05:56:22 80.73, 42.46 1.38 47
12 09/27/2012 06:46:37 -80.73,-150.35 09/27/2012 06:47:07 -80.73,-150.22 2.44 30
13 09/27/2012 07:37:38 80.70, 17.58 09/27/2012 07:37:50 80.69, 17.74 2.83 12
14 09/27/2012 08:28:35 -80.60,-173.45 09/27/2012 08:28:31 -80.60,-173.59 2.60 4
15 09/27/2012 09:19:38 80.60, -6.20 09/27/2012 09:19:16 80.61, -6.32 2.32
